Regional Weather Roundup
Issued by NWS

Home | Current Version | Previous Version | Text Only | Print | Product List | Glossary On
Versions: 1 2 3 4 5 6 7 8 9 10 11 12 13 14 15 16 17 18 19 20 21 22 23 24 25 26 27 28 29 30 31 32 33 34 35 36 37 38 39 40 41 42 43 44 45 46 47 48 49 50
000
ASUS43 KIND 172309
RWRIN

WEATHER ROUNDUP FOR INDIANA
NATIONAL WEATHER SERVICE INDIANAPOLIS IN
700 PM EDT THU AUG 17 2017

NOTE: "FAIR" INDICATES FEW OR NO CLOUDS BELOW 12,000 FEET WITH NO
SIGNIFICANT WEATHER AND/OR OBSTRUCTIONS TO VISIBILITY.

* - STATION DOES NOT REPORT WEATHER SUCH AS PRECIPITATION OR FOG.

+ - STATION NOT QUALITY CONTROLLED BY THE NATIONAL WEATHER SERVICE.
    USE DATA WITH CAUTION...ESPECIALLY DEWPOINT AND RELATIVE
    HUMIDITY OBSERVATIONS.

INZ001>003-010>013-019-020-180000-
NORTHWEST INDIANA

CITY           SKY/WX    TMP DP  RH WIND       PRES   REMARKS
GARY /AIRPORT/ PTSUNNY   82  61  47 SW21G35   29.75S
KNOX *+        MOSUNNY   79  66  65 SW10G16   29.77S
LA PORTE +     PTSUNNY   79  67  66 SW14      29.77R
MICHIGAN CITY+ PTSUNNY   79  64  61 SW10      29.76R
MONTICELLO +   MOSUNNY   81  67  60 SW9G17    29.79S
RENSSELAER +   MOSUNNY   79  61  53 SW14      29.80R
VALPARAISO     PTSUNNY   81  68  64 SW13G22   29.77R

$$

LMZ046-743>745-180000-
SOUTHERN LAKE MICHIGAN

STATION/POSITION TIME  TEMP    WIND        PRES    WAVE
                       AIR SEA DIR/SP/G            HT
                 (UTC) (F)     (DEG/KT/KT) (MB)    (FT)
BURNS HARBOR     2240   80     240/ 18/ 24 1007.8R
MICHIGAN CITY    2240   77     230/ 17/ 19   N/A
5NW MICH CITY    2300   77 75  260/ 12/ 16   N/A     3

$$

INZ004-005-014>016-021>024-180000-
NORTH CENTRAL INDIANA

CITY           SKY/WX    TMP DP  RH WIND       PRES   REMARKS
ELKHART        MOSUNNY   81  64  57 W17G23    29.76R
GOSHEN         MOSUNNY   81  63  54 W17G26    29.77R
LOGANSPORT +   SUNNY     79  66  65 W9G18     29.81S
PERU/GRISSOM   MOSUNNY   80  69  69 W10       29.80R
ROCHESTER +    SUNNY     82  64  54 W10G18    29.80S
SOUTH BEND     PTSUNNY   80  68  66 SW16G24   29.76R
WARSAW +       PTSUNNY   79  68  69 SW15      29.79R

$$

INZ006>009-017-018-025>027-180000-
NORTHEAST INDIANA

CITY           SKY/WX    TMP DP  RH WIND       PRES   REMARKS
AUBURN +       MOSUNNY   81  66  61 SW6       29.78F
FORT WAYNE     MOSUNNY   82  68  62 SW17G23   29.79S
HUNTINGTON +   MOSUNNY   81  69  65 W12G17    29.80S
KENDALLVILLE + PTSUNNY   80  70  70 SW13G18   29.78S

$$

INZ028-029-035-036-043>045-051>053-180000-
WEST CENTRAL INDIANA

CITY           SKY/WX    TMP DP  RH WIND       PRES   REMARKS
GREENCASTLE +  MOSUNNY   81  70  69 S5        29.84S
LAFAYETTE      MOSUNNY   82  69  64 W8G17     29.79S
TERRE HAUTE    SUNNY     83  69  62 SW10      29.82F

$$

INZ030>032-037>040-046>048-054>057-064-065-180000-
CENTRAL INDIANA

CITY           SKY/WX    TMP DP  RH WIND       PRES   REMARKS
CP ATTERBURY + CLOUDY    82  66  57 W7        29.85S
COLUMBUS       MOSUNNY   82  66  57 W7        29.85
FRANKFORT +    MOSUNNY   84  70  62 W9        29.84R
GREENWOOD *+   SUNNY     83  67  57 W12G18    29.85S
INDIANAPOLIS   PTSUNNY   83  69  62 SW18      29.82S
-EAGLE CREEK   PTSUNNY   83  69  62 SW12      29.82S
KOKOMO +       MOSUNNY   82  68  62 W16       29.82S
MARION +       MOSUNNY   81  70  69 W9        29.82S
MT COMFORT *+  MOSUNNY   81  70  69 SW12      29.84S
SHELBYVILLE    MOSUNNY   83  67  58 SW8       29.84R
ZIONSVILLE +   MOSUNNY   80  70  72 SW14      29.84S

$$

INZ033-034-041-042-049-050-058-059-180000-
EAST CENTRAL INDIANA

CITY           SKY/WX    TMP DP  RH WIND       PRES   REMARKS
MUNCIE         MOSUNNY   84  69  60 MISG      29.82F
RICHMOND +     MOSUNNY   79  70  73 W12       29.86S

$$

INZ060-061-067>069-081>083-085>088-180000-
SOUTHWEST INDIANA

CITY           SKY/WX    TMP DP  RH WIND       PRES   REMARKS
EVANSVILLE     MOSUNNY   86  70  58 S10       29.85S
HUNTINGBURG +  PTSUNNY   82  74  76 MISG      29.86S
WASHINGTON +   PTSUNNY   85  67  55 MISG      29.84S

$$

INZ062-063-066-070>080-084-089>092-180000-
SOUTH CENTRAL AND SOUTHEAST INDIANA

CITY           SKY/WX    TMP DP  RH WIND       PRES   REMARKS
BEDFORD +      CLOUDY    84  66  54 W7        29.85S
BLOOMINGTON    MOSUNNY   84  67  56 SW6       29.85S
MADISON *+     MOSUNNY   82  72  69 S5        29.88S
NORTH VERNON + PTSUNNY   81  70  69 W7        29.86R
SEYMOUR +      PTSUNNY   86  70  58 W6        29.84R

$$





USA.gov is the U.S. government's official web portal to all federal, state and local government web resources and services.